Time,TemperatureF,DewpointF,PressureIn,WindDirection,WindDirectionDegrees,WindSpeedMPH,WindSpeedGustMPH,Humidity,HourlyPrecipIn,Conditions,Clouds,dailyrainin,SoftwareType,DateUTC
2013-06-11 00:03:00,57.0,56.0,30.09,SSE,158,0.0,1.0,96,0.00,,,0.01,,2013-06-11 04:03:00,
2013-06-11 00:13:00,57.0,56.0,30.09,SSE,158,0.0,1.0,96,0.00,,,0.01,,2013-06-11 04:13:00,
2013-06-11 00:23:00,57.0,56.0,30.08,SE,135,0.0,0.0,96,0.00,,,0.01,,2013-06-11 04:23:00,
2013-06-11 00:33:00,57.0,56.0,30.08,SW,225,0.0,0.0,97,0.00,,,0.01,,2013-06-11 04:33:00,
2013-06-11 00:42:00,57.0,56.0,30.08,SW,225,0.0,0.0,97,0.00,,,0.01,,2013-06-11 04:42:00,
2013-06-11 00:53:00,57.0,56.0,30.08,SSE,158,0.0,0.0,97,0.00,,,0.01,,2013-06-11 04:53:00,
2013-06-11 01:02:00,57.0,56.0,30.08,South,180,0.0,0.0,97,0.00,,,0.01,,2013-06-11 05:02:00,
2013-06-11 01:12:00,57.0,56.0,30.08,South,180,0.0,0.0,97,0.00,,,0.01,,2013-06-11 05:12:00,
2013-06-11 01:22:00,57.0,56.0,30.08,SW,225,1.0,2.0,98,0.00,,,0.01,,2013-06-11 05:22:00,
2013-06-11 01:32:00,57.0,56.0,30.08,SSE,158,0.0,0.0,98,0.00,,,0.01,,2013-06-11 05:32:00,
2013-06-11 01:42:00,57.0,56.0,30.08,SSE,158,0.0,0.0,98,0.00,,,0.01,,2013-06-11 05:42:00,
2013-06-11 01:52:00,57.0,56.0,30.07,SSE,158,0.0,1.0,98,0.00,,,0.01,,2013-06-11 05:52:00,
2013-06-11 02:02:00,57.0,56.0,30.07,SSE,158,1.0,1.0,98,0.00,,,0.01,,2013-06-11 06:02:00,
2013-06-11 02:12:00,57.0,56.0,30.07,SSE,158,1.0,1.0,98,0.00,,,0.01,,2013-06-11 06:12:00,
2013-06-11 02:22:00,57.0,57.0,30.05,WSW,248,3.0,4.0,99,0.00,,,0.01,,2013-06-11 06:22:00,
2013-06-11 02:32:00,57.0,57.0,30.03,SSE,158,1.0,1.0,99,0.00,,,0.01,,2013-06-11 06:32:00,
2013-06-11 02:42:00,57.0,57.0,30.03,SSE,158,1.0,3.0,99,0.00,,,0.01,,2013-06-11 06:42:00,
2013-06-11 02:52:00,57.0,57.0,30.03,SSE,158,1.0,3.0,99,0.00,,,0.01,,2013-06-11 06:52:00,
2013-06-11 03:02:00,57.0,57.0,30.03,South,180,1.0,1.0,99,0.00,,,0.01,,2013-06-11 07:02:00,
2013-06-11 03:13:00,57.0,57.0,30.03,South,180,2.0,3.0,99,0.00,,,0.00,,2013-06-11 07:13:00,
2013-06-11 03:22:00,57.0,57.0,30.03,South,180,2.0,3.0,99,0.00,,,0.00,,2013-06-11 07:22:00,
2013-06-11 03:32:00,57.0,57.0,30.03,SSE,158,2.0,3.0,99,0.00,,,0.00,,2013-06-11 07:32:00,
2013-06-11 03:42:00,56.0,56.0,30.02,SSW,202,2.0,3.0,99,0.00,,,0.00,,2013-06-11 07:42:00,
2013-06-11 03:52:00,56.0,56.0,30.02,SSW,202,2.0,3.0,99,0.00,,,0.00,,2013-06-11 07:52:00,
2013-06-11 04:02:00,56.0,56.0,30.01,SE,135,1.0,3.0,99,0.00,,,0.00,,2013-06-11 08:02:00,
2013-06-11 04:12:00,56.0,56.0,30.01,SE,135,1.0,3.0,99,0.00,,,0.00,,2013-06-11 08:12:00,
2013-06-11 04:22:00,56.0,56.0,30.00,East,90,4.0,6.0,99,0.00,,,0.00,,2013-06-11 08:22:00,
2013-06-11 04:32:00,56.0,55.0,30.00,SSE,158,3.0,5.0,98,0.00,,,0.00,,2013-06-11 08:32:00,
2013-06-11 04:42:00,55.0,54.0,29.98,SSE,158,2.0,4.0,98,0.00,,,0.00,,2013-06-11 08:42:00,
2013-06-11 04:52:00,55.0,54.0,29.98,SSE,158,2.0,4.0,98,0.00,,,0.00,,2013-06-11 08:52:00,
2013-06-11 05:02:00,55.0,55.0,29.98,SE,135,4.0,6.0,99,0.00,,,0.00,,2013-06-11 09:02:00,
2013-06-11 05:12:00,55.0,55.0,29.98,SE,135,4.0,6.0,99,0.00,,,0.00,,2013-06-11 09:12:00,
2013-06-11 05:22:00,55.0,55.0,29.97,ESE,112,2.0,3.0,99,0.00,,,0.00,,2013-06-11 09:22:00,
2013-06-11 05:33:00,55.0,55.0,29.97,SSE,158,2.0,4.0,99,0.00,,,0.00,,2013-06-11 09:33:00,
2013-06-11 05:43:00,55.0,55.0,29.97,ENE,68,2.0,4.0,99,0.00,,,0.00,,2013-06-11 09:43:00,
2013-06-11 05:53:00,55.0,55.0,29.97,ENE,68,2.0,4.0,99,0.00,,,0.00,,2013-06-11 09:53:00,
2013-06-11 06:03:00,55.0,55.0,29.96,ESE,112,5.0,8.0,99,0.00,,,0.00,,2013-06-11 10:03:00,
2013-06-11 06:12:00,55.0,55.0,29.96,ESE,112,5.0,8.0,99,0.00,,,0.00,,2013-06-11 10:12:00,
2013-06-11 06:23:00,55.0,55.0,29.96,ESE,112,4.0,6.0,99,0.00,,,0.00,,2013-06-11 10:23:00,
2013-06-11 06:33:00,55.0,55.0,29.95,ESE,112,2.0,3.0,100,0.00,,,0.00,,2013-06-11 10:33:00,
2013-06-11 06:42:00,55.0,55.0,29.95,ESE,112,2.0,3.0,100,0.00,,,0.00,,2013-06-11 10:42:00,
2013-06-11 06:52:00,55.0,55.0,29.95,SE,135,2.0,5.0,100,0.00,,,0.00,,2013-06-11 10:52:00,
2013-06-11 07:02:00,55.0,55.0,29.96,SE,135,5.0,6.0,100,0.00,,,0.00,,2013-06-11 11:02:00,
2013-06-11 07:12:00,55.0,55.0,29.96,SE,135,5.0,6.0,100,0.00,,,0.00,,2013-06-11 11:12:00,
2013-06-11 07:22:00,55.0,55.0,29.94,East,90,3.0,5.0,100,0.00,,,0.14,,2013-06-11 11:22:00,
2013-06-11 07:32:00,55.0,55.0,29.94,ENE,68,5.0,6.0,100,0.00,,,0.18,,2013-06-11 11:32:00,
2013-06-11 07:42:00,55.0,55.0,29.94,ENE,68,5.0,6.0,100,0.00,,,0.18,,2013-06-11 11:42:00,
2013-06-11 07:52:00,55.0,55.0,29.93,SSE,158,5.0,8.0,100,0.00,,,0.27,,2013-06-11 11:52:00,
2013-06-11 08:02:00,55.0,55.0,29.93,ESE,112,3.0,5.0,100,0.00,,,0.30,,2013-06-11 12:02:00,
2013-06-11 08:12:00,55.0,55.0,29.92,NE,45,4.0,6.0,100,0.00,,,0.36,,2013-06-11 12:12:00,
2013-06-11 08:22:00,55.0,55.0,29.92,NE,45,4.0,6.0,100,0.00,,,0.36,,2013-06-11 12:22:00,
2013-06-11 08:32:00,55.0,55.0,29.91,East,90,4.0,6.0,100,0.00,,,0.38,,2013-06-11 12:32:00,
2013-06-11 08:42:00,55.0,55.0,29.89,SE,135,5.0,7.0,100,0.00,,,0.40,,2013-06-11 12:42:00,
2013-06-11 08:52:00,55.0,55.0,29.89,SE,135,5.0,7.0,100,0.00,,,0.40,,2013-06-11 12:52:00,
2013-06-11 09:02:00,55.0,55.0,29.89,East,90,6.0,12.0,100,0.00,,,0.42,,2013-06-11 13:02:00,
2013-06-11 09:12:00,55.0,55.0,29.89,East,90,6.0,12.0,100,0.00,,,0.42,,2013-06-11 13:12:00,
2013-06-11 09:22:00,55.0,55.0,29.89,ESE,112,6.0,10.0,100,0.00,,,0.45,,2013-06-11 13:22:00,
2013-06-11 09:32:00,55.0,55.0,29.88,SE,135,7.0,10.0,100,0.00,,,0.47,,2013-06-11 13:32:00,
2013-06-11 09:42:00,55.0,55.0,29.88,SE,135,7.0,10.0,100,0.00,,,0.47,,2013-06-11 13:42:00,
2013-06-11 09:52:00,55.0,55.0,29.87,SE,135,6.0,8.0,100,0.00,,,0.50,,2013-06-11 13:52:00,
2013-06-11 10:02:00,55.0,55.0,29.85,SE,135,4.0,8.0,100,0.00,,,0.51,,2013-06-11 14:02:00,
2013-06-11 10:12:00,55.0,55.0,29.85,SE,135,4.0,8.0,100,0.00,,,0.51,,2013-06-11 14:12:00,
2013-06-11 10:22:00,55.0,55.0,29.85,ESE,112,5.0,8.0,100,0.00,,,0.54,,2013-06-11 14:22:00,
2013-06-11 10:32:00,55.0,55.0,29.85,East,90,5.0,7.0,100,0.00,,,0.55,,2013-06-11 14:32:00,
2013-06-11 10:42:00,55.0,55.0,29.85,East,90,5.0,7.0,100,0.00,,,0.55,,2013-06-11 14:42:00,
2013-06-11 10:53:00,55.0,55.0,29.84,SE,135,6.0,10.0,100,0.00,,,0.57,,2013-06-11 14:53:00,
2013-06-11 11:02:00,55.0,55.0,29.84,ESE,112,8.0,13.0,100,0.00,,,0.58,,2013-06-11 15:02:00,
2013-06-11 11:12:00,55.0,55.0,29.84,ESE,112,8.0,13.0,100,0.00,,,0.58,,2013-06-11 15:12:00,
2013-06-11 11:22:00,56.0,56.0,29.82,East,90,7.0,10.0,100,0.00,,,0.60,,2013-06-11 15:22:00,
2013-06-11 11:33:00,56.0,56.0,29.82,ESE,112,7.0,11.0,100,0.00,,,0.61,,2013-06-11 15:33:00,
2013-06-11 11:43:00,56.0,56.0,29.82,ESE,112,7.0,11.0,100,0.00,,,0.61,,2013-06-11 15:43:00,
2013-06-11 11:53:00,56.0,56.0,29.80,ESE,112,6.0,10.0,100,0.00,,,0.62,,2013-06-11 15:53:00,
2013-06-11 12:03:00,57.0,57.0,29.80,ESE,112,7.0,11.0,100,0.00,,,0.63,,2013-06-11 16:03:00,
2013-06-11 12:12:00,57.0,57.0,29.80,ESE,112,7.0,11.0,100,0.00,,,0.63,,2013-06-11 16:12:00,
2013-06-11 12:22:00,57.0,57.0,29.78,East,90,8.0,14.0,99,0.00,,,0.64,,2013-06-11 16:22:00,
2013-06-11 12:33:00,57.0,56.0,29.78,SE,135,9.0,17.0,98,0.00,,,0.64,,2013-06-11 16:33:00,
2013-06-11 12:42:00,57.0,57.0,29.75,SE,135,10.0,14.0,100,0.00,,,0.66,,2013-06-11 16:42:00,
2013-06-11 12:53:00,57.0,57.0,29.75,SE,135,10.0,14.0,100,0.00,,,0.66,,2013-06-11 16:53:00,
2013-06-11 13:02:00,57.0,57.0,29.75,SE,135,9.0,13.0,99,0.00,,,0.68,,2013-06-11 17:02:00,
2013-06-11 13:12:00,57.0,57.0,29.75,SE,135,9.0,13.0,99,0.00,,,0.68,,2013-06-11 17:12:00,
2013-06-11 13:22:00,57.0,56.0,29.74,East,90,6.0,10.0,97,0.00,,,0.70,,2013-06-11 17:22:00,
2013-06-11 13:32:00,56.0,55.0,29.74,East,90,7.0,14.0,97,0.00,,,0.70,,2013-06-11 17:32:00,
2013-06-11 13:43:00,56.0,55.0,29.72,ESE,112,9.0,15.0,98,0.00,,,0.70,,2013-06-11 17:43:00,
2013-06-11 13:53:00,56.0,55.0,29.72,ESE,112,9.0,15.0,98,0.00,,,0.70,,2013-06-11 17:53:00,
2013-06-11 14:02:00,56.0,55.0,29.72,SE,135,6.0,10.0,98,0.00,,,0.70,,2013-06-11 18:02:00,
2013-06-11 14:12:00,56.0,55.0,29.72,SE,135,6.0,10.0,98,0.00,,,0.70,,2013-06-11 18:12:00,
2013-06-11 14:22:00,56.0,55.0,29.72,SE,135,9.0,14.0,98,0.00,,,0.71,,2013-06-11 18:22:00,
2013-06-11 14:32:00,56.0,55.0,29.70,South,180,8.0,13.0,98,0.00,,,0.71,,2013-06-11 18:32:00,
2013-06-11 14:43:00,56.0,55.0,29.70,South,180,8.0,13.0,98,0.00,,,0.71,,2013-06-11 18:43:00,
2013-06-11 14:52:00,56.0,55.0,29.71,SE,135,11.0,19.0,98,0.00,,,0.71,,2013-06-11 18:52:00,
2013-06-11 15:02:00,56.0,55.0,29.70,ENE,68,8.0,14.0,98,0.00,,,0.72,,2013-06-11 19:02:00,
2013-06-11 15:12:00,56.0,55.0,29.70,ENE,68,8.0,14.0,98,0.00,,,0.72,,2013-06-11 19:12:00,
2013-06-11 15:22:00,56.0,55.0,29.70,SE,135,12.0,16.0,97,0.00,,,0.72,,2013-06-11 19:22:00,
2013-06-11 15:33:00,56.0,55.0,29.70,SE,135,5.0,9.0,97,0.00,,,0.72,,2013-06-11 19:33:00,
2013-06-11 15:42:00,56.0,55.0,29.70,SE,135,5.0,9.0,97,0.00,,,0.72,,2013-06-11 19:42:00,
2013-06-11 15:53:00,56.0,55.0,29.69,ESE,112,5.0,7.0,98,0.00,,,0.73,,2013-06-11 19:53:00,
2013-06-11 16:03:00,56.0,55.0,29.69,SE,135,3.0,6.0,98,0.00,,,0.73,,2013-06-11 20:03:00,
2013-06-11 16:12:00,56.0,55.0,29.69,SE,135,3.0,6.0,98,0.00,,,0.73,,2013-06-11 20:12:00,
2013-06-11 16:22:00,56.0,55.0,29.67,ENE,68,6.0,10.0,98,0.00,,,0.74,,2013-06-11 20:22:00,
2013-06-11 16:32:00,56.0,55.0,29.67,East,90,5.0,8.0,98,0.00,,,0.74,,2013-06-11 20:32:00,
2013-06-11 16:42:00,56.0,55.0,29.67,East,90,5.0,8.0,98,0.00,,,0.74,,2013-06-11 20:42:00,
2013-06-11 16:52:00,56.0,55.0,29.66,NE,45,6.0,9.0,97,0.00,,,0.74,,2013-06-11 20:52:00,
2013-06-11 17:02:00,56.0,55.0,29.66,ENE,68,4.0,6.0,97,0.00,,,0.74,,2013-06-11 21:02:00,
2013-06-11 17:12:00,56.0,55.0,29.66,ENE,68,4.0,6.0,97,0.00,,,0.74,,2013-06-11 21:12:00,
2013-06-11 17:22:00,56.0,55.0,29.65,East,90,5.0,8.0,97,0.00,,,0.74,,2013-06-11 21:22:00,
2013-06-11 17:33:00,56.0,55.0,29.65,ENE,68,4.0,6.0,97,0.00,,,0.74,,2013-06-11 21:33:00,
2013-06-11 17:42:00,56.0,55.0,29.65,ENE,68,4.0,6.0,97,0.00,,,0.74,,2013-06-11 21:42:00,
2013-06-11 17:53:00,56.0,55.0,29.65,East,90,3.0,5.0,97,0.00,,,0.75,,2013-06-11 21:53:00,
2013-06-11 18:03:00,56.0,55.0,29.65,ENE,68,6.0,8.0,97,0.00,,,0.75,,2013-06-11 22:03:00,
2013-06-11 18:12:00,56.0,55.0,29.65,ENE,68,6.0,8.0,97,0.00,,,0.75,,2013-06-11 22:12:00,
2013-06-11 18:22:00,56.0,55.0,29.64,ENE,68,4.0,6.0,98,0.00,,,0.75,,2013-06-11 22:22:00,
2013-06-11 18:33:00,56.0,55.0,29.65,NNW,338,2.0,4.0,98,0.00,,,0.75,,2013-06-11 22:33:00,
2013-06-11 18:42:00,56.0,55.0,29.65,NNW,338,2.0,4.0,98,0.00,,,0.75,,2013-06-11 22:42:00,
2013-06-11 18:52:00,56.0,55.0,29.63,NE,45,7.0,11.0,98,0.00,,,0.75,,2013-06-11 22:52:00,
2013-06-11 19:02:00,56.0,55.0,29.64,NNW,338,3.0,5.0,98,0.00,,,0.75,,2013-06-11 23:02:00,
2013-06-11 19:12:00,56.0,55.0,29.64,NNW,338,3.0,5.0,98,0.00,,,0.75,,2013-06-11 23:12:00,
2013-06-11 19:22:00,55.0,54.0,29.63,ENE,68,6.0,8.0,98,0.00,,,0.76,,2013-06-11 23:22:00,
2013-06-11 19:32:00,55.0,55.0,29.63,NNE,22,4.0,5.0,99,0.00,,,0.76,,2013-06-11 23:32:00,
2013-06-11 19:42:00,55.0,55.0,29.63,NNE,22,4.0,5.0,99,0.00,,,0.76,,2013-06-11 23:42:00,
2013-06-11 19:52:00,55.0,55.0,29.62,WNW,292,4.0,8.0,99,0.00,,,0.76,,2013-06-11 23:52:00,
2013-06-11 20:02:00,55.0,55.0,29.62,NNE,22,4.0,6.0,99,0.00,,,0.76,,2013-06-12 00:02:00,
2013-06-11 20:12:00,55.0,55.0,29.62,North,0,1.0,3.0,99,0.00,,,0.76,,2013-06-12 00:12:00,
2013-06-11 20:22:00,55.0,55.0,29.62,North,0,1.0,3.0,99,0.00,,,0.76,,2013-06-12 00:22:00,
2013-06-11 20:32:00,55.0,55.0,29.62,ESE,112,1.0,1.0,100,0.00,,,0.76,,2013-06-12 00:32:00,
2013-06-11 20:42:00,55.0,55.0,29.62,ESE,112,1.0,1.0,100,0.00,,,0.76,,2013-06-12 00:42:00,
2013-06-11 20:52:00,55.0,55.0,29.61,NE,45,5.0,8.0,100,0.00,,,0.76,,2013-06-12 00:52:00,
2013-06-11 21:02:00,55.0,55.0,29.61,East,90,5.0,7.0,100,0.00,,,0.76,,2013-06-12 01:02:00,
2013-06-11 21:12:00,55.0,55.0,29.61,East,90,5.0,7.0,100,0.00,,,0.76,,2013-06-12 01:12:00,
2013-06-11 21:22:00,55.0,55.0,29.61,East,90,2.0,3.0,100,0.00,,,0.76,,2013-06-12 01:22:00,
2013-06-11 21:32:00,55.0,55.0,29.61,NE,45,2.0,5.0,100,0.00,,,0.78,,2013-06-12 01:32:00,
2013-06-11 21:42:00,55.0,55.0,29.61,NE,45,2.0,5.0,100,0.00,,,0.78,,2013-06-12 01:42:00,
2013-06-11 21:52:00,55.0,55.0,29.59,ENE,68,6.0,10.0,100,0.00,,,0.79,,2013-06-12 01:52:00,
2013-06-11 22:02:00,55.0,55.0,29.59,NE,45,4.0,8.0,100,0.00,,,0.80,,2013-06-12 02:02:00,
2013-06-11 22:12:00,55.0,55.0,29.59,NE,45,4.0,8.0,100,0.00,,,0.80,,2013-06-12 02:12:00,
2013-06-11 22:22:00,55.0,55.0,29.59,ENE,68,3.0,5.0,100,0.00,,,0.82,,2013-06-12 02:22:00,
2013-06-11 22:32:00,54.0,54.0,29.59,ENE,68,5.0,7.0,100,0.00,,,0.84,,2013-06-12 02:32:00,
2013-06-11 22:42:00,54.0,54.0,29.58,SE,135,4.0,6.0,100,0.00,,,0.86,,2013-06-12 02:42:00,
2013-06-11 22:52:00,54.0,54.0,29.58,SE,135,4.0,6.0,100,0.00,,,0.86,,2013-06-12 02:52:00,
2013-06-11 23:02:00,54.0,54.0,29.58,WNW,292,3.0,5.0,100,0.00,,,0.87,,2013-06-12 03:02:00,
2013-06-11 23:12:00,54.0,54.0,29.58,NNW,338,1.0,3.0,100,0.00,,,0.87,,2013-06-12 03:12:00,
2013-06-11 23:22:00,54.0,54.0,29.58,NNW,338,1.0,3.0,100,0.00,,,0.87,,2013-06-12 03:22:00,
2013-06-11 23:33:00,54.0,54.0,29.57,North,0,2.0,5.0,100,0.00,,,0.87,,2013-06-12 03:33:00,
2013-06-11 23:43:00,54.0,54.0,29.57,North,0,2.0,5.0,100,0.00,,,0.87,,2013-06-12 03:43:00,
2013-06-11 23:53:00,54.0,54.0,29.57,NW,315,3.0,5.0,100,0.00,,,0.87,,2013-06-12 03:53:00,